Location: Bolzano
(46.5170°N, 11.3670°E)
Time: 17:59:40
(UTC+02:00)

ISS - Visible Passes

Search period start: 14 May 2021 00:00
Search period end: 24 May 2021 00:00
Orbit: 417 x 422 km, 51.6° (Epoch: 14 May)

Date Brightness Start Highest point End Pass type
(mag) Time Alt. Az. Time Alt. Az. Time Alt. Az.
14 May -2.1 01:18:38 34° N 01:18:38 34° N 01:21:36 10° ENE visible
14 May -2.4 02:52:33 10° WNW 02:55:46 40° NNE 02:58:59 10° E visible
14 May -3.8 04:29:22 10° WNW 04:32:42 59° SSW 04:36:02 10° SE visible
14 May -1.7 21:17:15 10° SE 21:17:44 10° SE 21:18:12 10° ESE visible
14 May -3.9 22:50:38 10° SW 22:53:57 61° SSE 22:55:33 27° ENE visible
15 May -2.4 00:27:42 10° W 00:30:54 39° NNW 00:34:06 10° ENE visible
15 May -2.1 02:05:04 10° WNW 02:08:12 35° N 02:11:21 10° ENE visible
15 May -3.9 03:41:54 10° WNW 03:45:17 89° SSW 03:48:39 10° ESE visible
15 May -3.3 22:03:24 10° SW 22:06:34 39° SE 22:09:44 10° ENE visible
15 May -2.8 23:40:05 10° W 23:43:21 48° NNW 23:46:39 10° ENE visible
16 May -2.0 01:17:32 10° WNW 01:20:38 33° N 01:23:43 10° ENE visible
16 May -3.4 02:54:27 10° WNW 02:57:49 65° NNE 03:01:10 10° ESE visible
16 May -2.7 04:31:36 10° W 04:34:25 25° SW 04:37:13 10° SSE visible
16 May -2.7 21:16:24 10° SSW 21:19:13 25° SE 21:22:04 10° E visible
16 May -3.3 22:52:30 10° WSW 22:55:51 63° NNW 22:59:11 10° ENE visible
17 May -2.0 00:29:57 10° WNW 00:33:02 32° N 00:36:08 10° ENE visible
17 May -2.9 02:07:01 10° WNW 02:10:18 49° NNE 02:13:36 10° E visible
17 May -3.3 03:43:55 10° WNW 03:47:05 38° SW 03:50:14 10° SSE visible
17 May -3.8 22:05:01 10° WSW 22:08:21 88° NW 22:11:45 10° ENE visible
17 May -2.1 23:42:19 10° WNW 23:45:27 34° N 23:48:35 10° ENE visible
18 May -2.4 01:19:33 10° WNW 01:22:45 40° NNE 01:22:52 40° NNE visible
18 May -3.8 21:17:36 10° SW 21:20:55 62° SSE 21:24:15 10° ENE visible
18 May -2.3 22:54:41 10° W 22:57:53 39° NNW 23:01:05 10° ENE visible
19 May -2.1 00:32:03 10° WNW 00:35:11 35° N 00:36:27 25° NE visible
19 May -1.2 02:08:53 10° WNW 02:09:22 13° WNW 02:09:22 13° WNW visible
19 May -2.7 22:07:03 10° W 22:10:19 48° NNW 22:13:36 10° ENE visible
19 May -2.0 23:44:30 10° WNW 23:47:35 33° N 23:50:16 13° ENE visible
20 May -2.0 01:21:25 10° WNW 01:23:11 28° NW 01:23:11 28° NW visible
20 May -3.2 21:19:27 10° WSW 21:22:47 63° NNW 21:26:08 10° ENE visible
20 May -2.0 22:56:54 10° WNW 22:59:59 32° N 23:03:05 10° ENE visible
21 May -2.9 00:33:57 10° WNW 00:37:05 49° N 00:37:05 49° N visible
21 May -2.1 22:09:16 10° WNW 22:12:23 34° N 22:15:31 10° ENE visible
21 May -2.5 23:46:29 10° WNW 23:49:41 40° NNE 23:51:02 26° ENE visible
22 May -1.2 01:23:18 10° WNW 01:23:58 15° WNW 01:23:58 15° WNW visible
22 May -2.3 21:21:36 10° W 21:24:47 39° NNW 21:27:59 10° ENE visible
22 May -2.2 22:58:58 10° WNW 23:02:06 35° N 23:05:01 11° ENE visible
23 May -2.5 00:35:47 10° WNW 00:37:57 37° WNW 00:37:57 37° WNW visible
23 May -2.1 22:11:24 10° WNW 22:14:29 33° N 22:17:35 10° ENE visible
23 May -3.5 23:48:19 10° WNW 23:51:40 66° NNE 23:51:57 62° ENE visible
